Location: Jefferson
(30.9666°N, 81.7901°W)
Time: 07:59:17
(UTC+00:00)

ARIANE 6 FM1 Upper Stage - Pass Details

Date: 20 September 2024
Orbit: 563 x 595 km, 62.0° (Epoch: 12 October)

Event Time Altitude Azimuth Distance (km) Brightness Sun altitude
Rises 02:12:09 0° 257° (WSW) 2,768 6.8 -35.1°
Reaches altitude 10° 02:15:35 10° 287° (WNW) 1,883 6.1 -35.8°
Maximum altitude 02:17:28 13° 313° (NW) 1,723 5.8 -36.1°
Enters shadow 02:18:16 12° 325° (NW) 1,756 5.8 -36.3°
